This demonstration page uses our WeatherBlox Daily Observations layout. Learn more.

Left ArrowRight Arrow

41.55636, -103.73856

Hourly Observations for October 8, 2021

Temp ( °F °C ) Dew Point ( °F °C ) Humidity (%) Winds ( mph kmh ) Pressure ( in mb ) Visibility ( mi km ) Precip ( " mm )
12:58 am 00:58 Mostly Cloudy 58 14.7 36 2.3 43 43 NW 9 15 29.96 1015 10 16 0.00 0.00
1:58 am 01:58 Mostly Cloudy 57 14 42 5.3 56 56 NW 8 13 29.94 1014 10 16 0.00 0.00
2:58 am 02:58 Mostly Clear 54 12.2 42 5.3 63 63 SSW 7 11 29.95 1014 10 16 0.00 0.00
3:58 am 03:58 Mostly Cloudy 50 9.9 40 4.7 70 70 WSW 5 7 29.96 1015 10 16 0.00 0.00
4:58 am 04:58 Mostly Cloudy 53 11.6 41 5.2 65 65 SSW 6 9 29.95 1014 10 16 0.00 0.00
5:58 am 05:58 Clear 47 8.2 40 4.2 76 76 W 5 7 29.98 1015 10 16 0.00 0.00
6:58 am 06:58 Clear 45 7.1 38 3.5 78 78 WSW 5 7 30.00 1016 10 16 0.00 0.00
7:58 am 07:58 Sunny 46 7.9 40 4.3 78 78 W 3 6 30.02 1017 10 16 0.00 0.00
8:58 am 08:58 Sunny 53 11.4 41 5.1 65 65 SSW 6 9 30.02 1017 10 16 0.00 0.00
9:58 am 09:58 Sunny 60 15.8 41 5.1 49 49 Calm 30.00 1016 10 16 0.00 0.00
10:58 am 10:58 Sunny 71 21.4 37 2.6 29 29 Calm 29.97 1015 10 16 0.00 0.00
11:58 am 11:58 Sunny 74 23.4 31 -0.6 20 20 NNW 3 6 29.94 1014 10 16 0.00 0.00
12:58 pm 12:58 Sunny 75 23.9 33 0.4 21 21 SE 3 6 29.91 1013 10 16 0.00 0.00
1:58 pm 13:58 Sunny 76 24.6 31 -0.7 19 19 E 6 9 29.88 1012 10 16 0.00 0.00
2:58 pm 14:58 Sunny 76 24.2 31 -0.5 20 20 SSE 7 11 29.85 1011 10 16 0.00 0.00
3:58 pm 15:58 Sunny 75 23.9 32 0 21 21 S 7 11 29.85 1011 10 16 0.00 0.00
4:58 pm 16:58 Mostly Sunny 74 23.2 32 0.2 22 22 S 8 13 29.85 1011 10 16 0.00 0.00
5:58 pm 17:58 Mostly Cloudy 70 21 34 0.9 26 26 S 8 13 29.87 1012 10 16 0.00 0.00
6:58 pm 18:58 Mostly Cloudy 67 19.4 34 1.3 30 30 SSW 9 15 29.91 1013 10 16 0.00 0.00
7:58 pm 19:58 Mostly Cloudy with Light Rain 68 19.8 34 1.2 29 29 SW 13 20 29.91 1013 10 16 0.00 0.00
8:58 pm 20:58 Cloudy 66 18.7 38 3.1 36 36 Calm 29.85 1011 10 16 0.00 0.00
9:58 pm 21:58 Mostly Cloudy 62 16.6 40 4.5 45 45 ESE 10 17 29.82 1010 10 16 0.00 0.00
10:58 pm 22:58 Mostly Cloudy 59 15.2 42 5.3 52 52 Calm 29.81 1010 10 16 0.00 0.00
11:58 pm 23:58 Partly Cloudy 54 12.1 41 5 62 62 ESE 3 6 29.79 1009 10 16 0.00 0.00

Powered by AerisWeather